Weather Roundup
Issued by NWS Chicago, IL

Home | Current Version | Previous Version | Text Only | Print | Product List | Glossary On
Versions: 1 2 3 4 5 6 7 8 9 10 11 12 13 14 15 16 17 18 19 20 21 22 23 24 25 26 27 28 29 30 31 32 33 34 35 36 37 38 39 40 41 42 43 44 45 46 47 48 49 50
000
NZUS59 KLOT 221608
HRRLOT

CHICAGO AREA WEATHER ROUNDUP
NATIONAL WEATHER SERVICE CHICAGO/ROMEOVILLE IL
1000 AM CST THU FEB 22 2018

NOTE: "FAIR" INDICATES FEW OR NO CLOUDS BELOW 12,000 FEET WITH NO
SIGNIFICANT WEATHER AND/OR OBSTRUCTIONS TO VISIBILITY.

* THESE STATIONS ARE NOT UNDER NWS QUALITY CONTROL. THEY ALSO MAY NOT
  REPORT WEATHER SUCH AS PRECIPITATION OR FOG.

ILZ005-006-012>014-019>023-221700-
NORTHEAST ILLINOIS

CITY           SKY/WX    TMP DP  RH WIND       PRES   REMARKS
OHARE          PTSUNNY   37  29  72 E14       30.54F
MIDWAY         PTSUNNY   36  30  79 NE17      30.55S
AURORA         PTSUNNY   36  29  75 NE16      30.52F
LANSING*       PTSUNNY   34  32  92 NE9       30.54F WCI  27
JOLIET*        PTSUNNY   39  33  78 E13G20    30.52F
WAUKEGAN       PTSUNNY   36  30  79 NE13G21   30.56F
DUPAGE AIRPORT   N/A     36  30  79 NE13      30.52F
WHEELING       PTSUNNY   36  30  79 NE14G21   30.57F
KANKAKEE*      CLOUDY    35  32  89 E14       30.51F WCI  26
MORRIS*          N/A     35  31  84 E9        30.50F WCI  28
LEWIS AIRPORT* PTSUNNY   36  32  84 E14       30.52F
NORTHERLY ISL    N/A     34  29  82 NE12        N/A  WCI  25
$$

WIZ051-052-058>065-066-070>072-221700-
SOUTHEAST WISCONSIN

CITY           SKY/WX    TMP DP  RH WIND       PRES   REMARKS
MILWAUKEE      PTSUNNY   33  27  78 NE13      30.60F WCI  24
KENOSHA*       PTSUNNY   35  27  72 E17       30.57F WCI  25
RACINE*        PTSUNNY   34  28  79 NE13      30.60S WCI  25
BURLINGTON       N/A     32  26  76 E12       30.57F WCI  23
WAUKESHA       CLOUDY    28  21  74 NE8       30.59F WCI  20
WEST BEND      CLOUDY    30  25  80 NE9G17    30.60S WCI  22
$$

INZ001>003-010>013-019-020-221700-
NORTHWEST INDIANA

CITY           SKY/WX    TMP DP  RH WIND       PRES   REMARKS
GARY*          PTSUNNY   36  32  87 E14       30.56R
MICHIGAN CITY* NOT AVBL
RENSSELAER*    NOT AVBL
VALPARAISO     CLOUDY    38  31  76 E15       30.55R
$$

LMZ740>746-221700-
SOUTHERN LAKE MICHIGAN

STATION/POSITION TIME  SKY/WX   TEMP WIND        PRES    VSBY
                                AIR  DIR/SP/G
                 (UTC)          (F)  (DEG/KT/KT) (MB)    (MI)
HARRISON CRIB    1540            34   60/ 15/ 16   N/A
BURNHAM HARBOR   1600            34   50/ 13/ 14   N/A
CALUMET HARBOR   1542            33   40/ 14/ 16 1034.3R
BURNS HARBOR     1540            33   60/ 11/ 12 1034.9R
MICHIGAN CITY    1540            34   70/  9/ 11   N/A
$$

ABBREVIATIONS USED IN REMARKS
   TC - TEMPERATURE IN CELSIUS
  WCI - WIND CHILL INDEX
   HX - HEAT INDEX
  VSB - VISIBILITY
$$




USA.gov is the U.S. government's official web portal to all federal, state and local government web resources and services.